Showing default

IRIDIUM 100, 42956

Orbit data source: Space-Track

IRIDIUM 100, 42956 is a payload satellite owned by Iridium (US) in LEO that was launched on Mon, 09 Oct 2017 UTC via an FALCON 9 launch vehicle from the Air Force Western Test Range (AFWTR). Payload-class satellites include a variety of spacecraft equipped with specific instruments for various scientific and technological missions. These include communications satellites like Starlink; space stations such as the ISS; scientific satellites like the Hubble; Earth observation satellites from companies like Planet Labs, Umbra, and HawkEye 360; GPS; miniature CubeSats for education and research; and military/defense satellites.

Loading next visibility...
Identifier
42956, 2017-061B
Orbit
LEO
Country
Flag of USUS
Related business
Manufacturer
OATK SSG Gilbert
Mission
Operational Commercial Communications
Bus & Motor
ELITEBUS, Unknown motor
Mass
860 kg wet, 700 kg dry
Launch date (UTC)
2017-10-09 (8 years ago)
Launch vehicle
FALCON 9
Launch site
Air Force Western Test Range (AFWTR)
Object type
Payload
Rocket body
Debris
Shape & HBR
Trap Box + 2 Pan, 4.7 m
Radar Cross Section
14.423 m², Large (>1 m²)

Expand to show TLE details & history
Last TLE update: 11 hours ago

TLE from 11 hours ago
0 IRIDIUM 100
1 42956U 17061B   25261.06753096  .00000070  00000-0  17988-4 0  9997
2 42956  86.3994 138.9711 0002298  87.4155 272.7304 14.34218185415774
Epoch: 2025-09-18T01:37Z
TLE epoch observation values (Epoch: 2025-09-18T01:37:14.674Z)
Latitude
-0.00003°
Longitude
117.42551°
Altitude
780.639 km
Speed
7.464 km/s
True Right ascension
09h 15m 53s
True Declination
0° 00' 00"
Sunlit
Object was in daylight at epoch
Visualization orbit readout
Latitude
Unknown
Longitude
Unknown
Altitude
Unknown
Speed
Unknown
Apparent Right ascension
Unknown
Apparent Declination
Unknown
Sunlit
N/A
Visualization observer readout
Local Sidereal Time
05:16:01
Azimuth
Unknown
Elevation
Unknown
Doppler factor
Unknown
Orbital elements
Apogee altitude
776.274 km
Perigee altitude
772.986 km
Semi-major axis
7,152.767 km
Eccentricity
0.00023
Inclination
86.3994°
RAAN
138.9711°
Arg. of periapsis
87.4155°
True anomaly
272.7041°
Mean anomaly
272.7304°
Eccentric anomaly
272.71725°
Mean motion
3.58783 °/min
Orbital period
100.34 mins
BSTAR
0.000017988
Loading maneuver chart data...
Computing Atmospheric mass density...
Loading historical data...
Loading historical data...
Loading historical data...
Loading historical data...
Loading historical data...
Loading historical data...
Loading historical data...

Documentation

Showing up to 5 results
|